IRIDIUM 86 [-]

Last updated on Oct. 5, 2018, 6:13 a.m. UTC

1 25528U 98066B   18277.88543620  .08749369 -98445-6  50439-3 0  9999
2 25528  86.3855 148.1964 0061105  27.3299 333.1167 16.32310333 47849

Satellite is not in orbit.